Regional Weather Roundup
Issued by NWS

Home | Current Version | Previous Version | Graphics & Text | Print | Product List | Glossary On
Versions: 1 2 3 4 5 6 7 8 9 10 11 12 13 14 15 16 17 18 19 20 21 22 23 24 25 26 27 28 29 30 31 32 33 34 35 36 37 38 39 40 41 42 43 44 45 46 47 48 49 50
000
ASUS45 KCYS 121310
RWRWY

WYOMING REGIONAL WEATHER ROUNDUP
NATIONAL WEATHER SERVICE CHEYENNE WY
600 AM MST FRI FEB 12 2016

NOTE:  "FAIR" INDICATES FEW OR NO CLOUDS BELOW 12,000 FEET
WITH NO SIGNIFICANT WEATHER AND/OR OBSTRUCTIONS TO VISIBILITY.

WYZ001-121400-
YELLOWSTONE NATIONAL PARK

CITY           SKY/WX    TMP DP  RH WIND       PRES   REMARKS
LK YELLOWSTONE   N/A     30  28  92 CALM      30.36S
W YELLOWSTONE  NOT AVBL

$$
WYZ002>013-054>058-071-098>099-121400-
NORTHERN WYOMING

CITY           SKY/WX    TMP DP  RH WIND       PRES   REMARKS
JACKSON        MOCLDY    21  21 100 E6        30.36R WCI  14
CODY           FAIR      30  18  59 S5        30.25R WCI  25
GREYBULL       CLOUDY    35  29  78 CALM      30.25S
WORLAND        CLOUDY    34  29  82 S5        30.25S WCI  30
SHERIDAN       CLOUDY    32  27  80 CALM      30.28S
BUFFALO        CLOUDY    37  25  61 VRB3      30.28R
GILLETTE       FOG       28  27  96 NE5       30.30R VSB 1/4 WCI  23
HULETT         CLOUDY    30  28  93 S3        30.31F
NEWCASTLE      FAIR      32  28  86 N13       30.27S WCI  22

$$
WYZ014>020-022>026-101>103-121400-
CENTRAL WYOMING

CITY           SKY/WX    TMP DP  RH WIND       PRES   REMARKS
BIG PINEY      FAIR      19  16  88 NW3       30.37S
PINEDALE         N/A     25  23  93 CALM      30.37S
DUBOIS         FAIR      37  30  75 NW20      30.26S WCI  27
LANDER         FAIR      31  24  75 NW6       30.24S WCI  25
RIVERTON       FAIR      26  21  81 CALM      30.26R
CASPER         MOCLDY    32  25  75 NW7       30.27R WCI  26
DOUGLAS        CLOUDY    30  27  88 CALM      30.30R

$$
WYZ021-027>030-104>119-121400-
SOUTHERN WYOMING

CITY           SKY/WX    TMP DP  RH WIND       PRES   REMARKS
EVANSTON       FAIR      34  14  43 S7        30.37S WCI  28
FORT BRIDGER   SUNNY     36  18  48 W14       30.38F WCI  27
ROCK SPRINGS   FAIR      32  16  51 W7        30.36S WCI  26
DIXON          CLOUDY    26  19  76 CALM      30.42R
RAWLINS        CLOUDY    36  20  52 W12G17    30.32S WCI  28
SARATOGA       CLOUDY    32  25  74 E12       30.34S WCI  23
LARAMIE        MOCLDY    38  23  55 SW21G26   30.28S WCI  28
CHEYENNE       CLOUDY    34  25  69 S7        30.28R WCI  28
TORRINGTON     CLOUDY    32  26  78 CALM      30.28R
PINE BLUFFS    FAIR      28  27  93 CALM      30.29S

$$



USA.gov is the U.S. government's official web portal to all federal, state and local government web resources and services.